Météo Nord-Pas-de-Calais   La météo au plus près de chez vous

Station météorologique

Observations météo à Nimes-Courbessac (30189)

30189001 59 m Dernier relevé à 04:42
22.1°C
Humidité 46 % Vent 10.4 km/h 1019.2 hPa

Journée consultée

Mardi 1 Septembre 2026

Synthèse de la journée

Périodes de référence en UTC

Température maximale

34.5°C

à 18:00

06h 06h

Température minimale

22°C

à 03:42

18h 18h

Rafale maximale

26 km/h

à 04:18

00h 00h

Précipitations

0 mm

Cumul quotidien

06h 06h

Ensoleillement

0h 0 mins

Durée quotidienne

00h 00h

Graphiques de la journée

Heure locale Réduire

Données détaillées

Relevés météo

Pas de 6 minutes Afficher les relevés infra-horaires
Relevés météo détaillés à Nimes-Courbessac pour le Mardi 1 Septembre 2026
Heure Température °C Point de rosée °C Humidité % Vent moyen (raf.), km/h Précipitations mm Température à 10 cm °C Température à 20 cm °C Température à 50 cm °C État du sol   Hauteur neige cm Ensoleillement min Rayonnement global W/m² Pression hPa
04:42 22.1 °C 9.9 °C 46 % 14 km/h (24 km/h) 0 mm0 mm 27.9 °C 27 °C 28 °C 2   0 cm 0 min 0 W/m² 1019.1 hPa
04:36 22.1 °C 9.9 °C 46 % 14 km/h (24 km/h) 0 mm0 mm 27.9 °C 27 °C 28 °C 2   0 cm 0 min 0 W/m² 1019.1 hPa
04:30 22.1 °C 9.9 °C 46 % 14 km/h (23 km/h) 0 mm0 mm 27.9 °C 27.1 °C 28 °C 2   0 cm 0 min 0 W/m² 1019.1 hPa
04:24 22.1 °C 9.9 °C 46 % 16 km/h (26 km/h) 0 mm0 mm 28 °C 27.2 °C 28 °C 2   0 cm 0 min 0 W/m² 1019.1 hPa
04:18 22.1 °C 9.9 °C 46 % 15 km/h (26 km/h) 0 mm0 mm 28 °C 27.2 °C 28 °C 2   0 cm 0 min 0 W/m² 1019.1 hPa
04:12 22 °C 9.8 °C 46 % 14 km/h (23 km/h) 0 mm0 mm 28 °C 27.2 °C 28 °C 2   0 cm 0 min 0 W/m² 1019.1 hPa
04:06 22 °C 9.8 °C 46 % 13 km/h (22 km/h) 0 mm0 mm 28 °C 27.3 °C 27.9 °C 2   0 cm 0 min 0 W/m² 1019.1 hPa
04:00 22 °C 9.8 °C 46 % 13 km/h (22 km/h) 0 mm0 mm 28.1 °C 27.3 °C 28 °C 2   0 cm 0 min 0 W/m² 1019.1 hPa
03:54 22 °C 9.8 °C 46 % 12 km/h (22 km/h) 0 mm0 mm 28.1 °C 27.3 °C 27.9 °C 2   0 cm 0 min 0 W/m² 1019.2 hPa
03:48 22 °C 9.8 °C 46 % 11 km/h (22 km/h) 0 mm0 mm 28.1 °C 27.3 °C 27.9 °C 2   0 cm 0 min 0 W/m² 1019.1 hPa
03:42 22 °C 9.8 °C 46 % 10 km/h (22 km/h) 0 mm0 mm 28.2 °C 27.4 °C 27.9 °C 2   0 cm 0 min 0 W/m² 1019.2 hPa
03:36 22.1 °C 9.9 °C 46 % 11 km/h (21 km/h) 0 mm0 mm 28.2 °C 27.4 °C 27.9 °C 2   0 cm 0 min 0 W/m² 1019.3 hPa
03:30 22.3 °C 10.1 °C 46 % 13 km/h (21 km/h) 0 mm0 mm 28.2 °C 27.5 °C 27.9 °C 2   0 cm 0 min 0 W/m² 1019.3 hPa
03:24 22.3 °C 10.1 °C 46 % 12 km/h (20 km/h) 0 mm0 mm 28.3 °C 27.5 °C 27.9 °C 2   0 cm 0 min 0 W/m² 1019.3 hPa
03:18 22.3 °C 10.1 °C 46 % 10 km/h (19 km/h) 0 mm0 mm 28.3 °C 27.6 °C 27.9 °C 2   0 cm 0 min 0 W/m² 1019.4 hPa
03:12 22.2 °C 10 °C 46 % 9 km/h (19 km/h) 0 mm0 mm 28.3 °C 27.6 °C 27.9 °C 2   0 cm 0 min 0 W/m² 1019.4 hPa
03:06 22.2 °C 10.3 °C 47 % 10 km/h (19 km/h) 0 mm0 mm 28.4 °C 27.6 °C 27.9 °C 2   0 cm 0 min 0 W/m² 1019.4 hPa
03:00 22.2 °C 10.3 °C 47 % 10 km/h (18 km/h) 0 mm0 mm 28.4 °C 27.7 °C 28 °C 2   0 cm 0 min 0 W/m² 1019.4 hPa
02:54 22.2 °C 10.3 °C 47 % 9 km/h (15 km/h) 0 mm0 mm 28.4 °C 27.7 °C 27.9 °C 2   0 cm 0 min 0 W/m² 1019.4 hPa
02:48 22.3 °C 10.1 °C 46 % 8 km/h (17 km/h) 0 mm0 mm 28.5 °C 27.8 °C 27.9 °C 2   0 cm 0 min 0 W/m² 1019.4 hPa
02:42 22.3 °C 10.1 °C 46 % 9 km/h (17 km/h) 0 mm0 mm 28.5 °C 27.8 °C 27.9 °C 2   0 cm 0 min 0 W/m² 1019.4 hPa
02:36 22.5 °C 10.3 °C 46 % 8 km/h (16 km/h) 0 mm0 mm 28.6 °C 27.9 °C 27.9 °C 2   0 cm 0 min 0 W/m² 1019.4 hPa
02:30 22.7 °C 10.2 °C 45 % 8 km/h (15 km/h) 0 mm0 mm 28.5 °C 27.9 °C 27.9 °C 2   0 cm 0 min 0 W/m² 1019.5 hPa
02:24 23 °C 10.1 °C 44 % 9 km/h (18 km/h) 0 mm0 mm 28.6 °C 27.9 °C 27.9 °C 2   0 cm 0 min 0 W/m² 1019.5 hPa
02:18 23.1 °C 10.2 °C 44 % 11 km/h (19 km/h) 0 mm0 mm 28.6 °C 27.9 °C 27.9 °C 2   0 cm 0 min 0 W/m² 1019.5 hPa
02:12 23.1 °C 10.2 °C 44 % 12 km/h (21 km/h) 0 mm0 mm 28.7 °C 28 °C 27.9 °C 2   0 cm 0 min 0 W/m² 1019.4 hPa
02:06 23.1 °C 10.2 °C 44 % 11 km/h (21 km/h) 0 mm0 mm 28.7 °C 28 °C 27.9 °C 2   0 cm 0 min 0 W/m² 1019.3 hPa
02:00 23.1 °C 10.2 °C 44 % 9 km/h (21 km/h) 0 mm0 mm 28.7 °C 28.1 °C 27.9 °C 2   0 cm 0 min 0 W/m² 1019.3 hPa
01:54 23.2 °C 10.3 °C 44 % 10 km/h (18 km/h) 0 mm0 mm 28.8 °C 28.1 °C 27.9 °C 2   0 cm 0 min 0 W/m² 1019.4 hPa
01:48 23.3 °C 10.4 °C 44 % 12 km/h (22 km/h) 0 mm0 mm 28.8 °C 28.2 °C 27.9 °C 2   0 cm 0 min 0 W/m² 1019.4 hPa
01:42 23.2 °C 10.3 °C 44 % 11 km/h (19 km/h) 0 mm0 mm 28.8 °C 28.2 °C 27.9 °C 2   0 cm 0 min 0 W/m² 1019.4 hPa
01:36 23.3 °C 10.4 °C 44 % 10 km/h (19 km/h) 0 mm0 mm 28.8 °C 28.2 °C 27.9 °C 2   0 cm 0 min 0 W/m² 1019.5 hPa
01:30 23.5 °C 10.5 °C 44 % 10 km/h (19 km/h) 0 mm0 mm 28.9 °C 28.3 °C 27.9 °C 2   0 cm 0 min 0 W/m² 1019.5 hPa
01:24 23.6 °C 10.6 °C 44 % 12 km/h (19 km/h) 0 mm0 mm 28.9 °C 28.3 °C 27.8 °C 2   0 cm 0 min 0 W/m² 1019.4 hPa
01:18 23.8 °C 10.8 °C 44 % 12 km/h (21 km/h) 0 mm0 mm 29 °C 28.3 °C 27.9 °C 2   0 cm 0 min 0 W/m² 1019.4 hPa
01:12 24 °C 10.6 °C 43 % 11 km/h (20 km/h) 0 mm0 mm 29 °C 28.4 °C 27.9 °C 2   0 cm 0 min 0 W/m² 1019.4 hPa
01:06 23.9 °C 10.6 °C 43 % 12 km/h (22 km/h) 0 mm0 mm 29.1 °C 28.4 °C 27.9 °C 2   0 cm 0 min 0 W/m² 1019.4 hPa
01:00 24 °C 10.6 °C 43 % 12 km/h (22 km/h) 0 mm0 mm 29.1 °C 28.5 °C 27.9 °C 2   0 cm 0 min 0 W/m² 1019.4 hPa
00:54 24.1 °C 10.7 °C 43 % 12 km/h (21 km/h) 0 mm0 mm 29.1 °C 28.5 °C 27.8 °C 2   0 cm 0 min 0 W/m² 1019.4 hPa
00:48 24.2 °C 10.8 °C 43 % 12 km/h (21 km/h) 0 mm0 mm 29.2 °C 28.6 °C 27.9 °C 2   0 cm 0 min 0 W/m² 1019.4 hPa
00:42 24.3 °C 10.9 °C 43 % 12 km/h (20 km/h) 0 mm0 mm 29.2 °C 28.6 °C 27.8 °C 2   0 cm 0 min 0 W/m² 1019.4 hPa
00:36 24.5 °C 10.7 °C 42 % 12 km/h (22 km/h) 0 mm0 mm 29.2 °C 28.6 °C 27.8 °C 2   0 cm 0 min 0 W/m² 1019.3 hPa
00:30 24.6 °C 10.8 °C 42 % 13 km/h (23 km/h) 0 mm0 mm 29.2 °C 28.7 °C 27.9 °C 2   0 cm 0 min 0 W/m² 1019.3 hPa
00:24 24.7 °C 10.6 °C 41 % 12 km/h (21 km/h) 0 mm0 mm 29.3 °C 28.7 °C 27.8 °C 2   0 cm 0 min 0 W/m² 1019.2 hPa
00:18 24.8 °C 10.6 °C 41 % 13 km/h (25 km/h) 0 mm0 mm 29.3 °C 28.8 °C 27.8 °C 2   0 cm 0 min 0 W/m² 1019.2 hPa
00:12 24.8 °C 10.6 °C 41 % 12 km/h (22 km/h) 0 mm0 mm 29.4 °C 28.8 °C 27.8 °C 2   0 cm 0 min 0 W/m² 1019.1 hPa
00:06 24.9 °C 10.7 °C 41 % 11 km/h (20 km/h) 0 mm0 mm 29.4 °C 28.9 °C 27.8 °C 2   0 cm 0 min 0 W/m² 1019 hPa
00:00 24.9 °C 10.7 °C 41 % 12 km/h (20 km/h) 0 mm0 mm 29.5 °C 28.9 °C 27.8 °C 2   0 cm 0 min 0 W/m² 1019 hPa

Données via Météo-France

Relevés météo à Nimes-Courbessac

Cette page rassemble les observations de la station de Nimes-Courbessac : température, humidité, vent, précipitations et pression atmosphérique. Les graphiques facilitent le suivi de la journée, tandis que le tableau donne accès aux mesures horaires et infra-horaires disponibles.

Pour replacer ces mesures dans leur contexte, consultez la climatologie de Nimes-Courbessac ainsi que ses normales et records. Retrouvez aussi la carte des observations météo en temps réel.